Find Starlink 5341

NORAD ID: 55287 Int'l Des: 2023-010 Owner: SPXS Country: US Constellation: starlink operational
LEOCIRCULAR

Current View

Loading 3D Globe...

About Starlink 5341

Starlink 5341 (NORAD 55287) is a starlink constellation satellite (v1.5) launched Jan 19, 2023 by SPXS of US. It operates in LEO, CIRCULAR orbit with a mass of 305.00 kg.

Upcoming Passes

Passes for default location (London). Set your location on the main map for personalized predictions.

Altitude History

Loading altitude history...

Two-Line Element Set

1 55287U 23010U 26237.57369662 -.00001132 00000-0 -87099-4 0 9993
2 55287 69.9984 298.7812 0002909 256.2643 103.8193 14.98325280199050
Epoch: Aug 25, 2026 • Age: 16 hours

Current Status

Altitude 582.0 km
Apogee / Perigee N/A
Velocity 7.57 km/s
Sub-Earth Point -29.60°S, 134.01°W
Launch Date Jan 19, 2023
Age 3.5 years
Type internet

Technical Details

Classification Payload
Mass 305.00 kg
Dry Mass 290.00 kg
Total Mass 305.00 kg
Length 0.20 m
Diameter 2.80 m
Span 9.00 m
Shape Box + pan
Manufacturer SPXS
Bus Type Starlink
Phase Status In Orbit
Owner/State SPXS/US

Most Searched